Location: Cherryland
(37.6794°N, 122.1033°W)
Time: 22:32:31
(UTC+00:00)

COSMOS 2428 - Pass Details

Date: 14 December 2025
Orbit: 845 x 853 km, 70.9° (Epoch: 14 January)

Event Time Altitude Azimuth Distance (km) Brightness Sun altitude
Rises 14:24:43 0° 342° (NNW) 3,419 5.5 -10.0°
Reaches altitude 10° 14:27:14 10° 347° (NNW) 2,481 4.8 -9.5°
Maximum altitude 14:32:48 53° 64° (ENE) 1,035 3.5 -8.5°
Drops below altitude 10° 14:38:21 10° 141° (SE) 2,472 6.3 -7.5°
Sets 14:40:51 0° 146° (SE) 3,405 7.0 -7.0°
